| time (UTC) | temp F | wind direction | speed knots | gust knots | rain 1hr in | rain 24hr in | rain mn in | humidity % | barometer mb |
| 20260507133926 | 81 | 100 | 9.6 | 0.0 | 0.00 | 0.00 | 0.00 | 69 | 1012.0 |
| 20260507132925 | 80 | 100 | 9.6 | 0.0 | 0.00 | 0.00 | 0.00 | 70 | 1012.0 |
| 20260507131924 | 79 | 140 | 4.3 | 0.0 | 0.00 | 0.00 | 0.00 | 73 | 1012.0 |
| 20260507130924 | 78 | 140 | 4.3 | 0.0 | 0.00 | 0.00 | 0.00 | 73 | 1012.0 |
| 20260507125921 | 78 | 140 | 4.3 | 0.0 | 0.00 | 0.00 | 0.00 | 73 | 1012.0 |
| 20260507124921 | 78 | 140 | 4.3 | 0.0 | 0.00 | 0.00 | 0.00 | 73 | 1012.0 |
| 20260507123920 | 77 | 140 | 4.3 | 0.0 | 0.00 | 0.00 | 0.00 | 72 | 1012.0 |
| 20260507122920 | 77 | 140 | 4.3 | 0.0 | 0.00 | 0.00 | 0.00 | 72 | 1012.0 |
| 20260507121919 | 77 | 140 | 4.3 | 0.0 | 0.00 | 0.00 | 0.00 | 72 | 1012.0 |
| 20260507120919 | 77 | 140 | 4.3 | 0.0 | 0.00 | 0.00 | 0.00 | 72 | 1012.0 |
| 20260507115918 | 77 | 140 | 4.3 | 0.0 | 0.00 | 0.00 | 0.00 | 72 | 1012.0 |
| 20260507114918 | 77 | 140 | 4.3 | 0.0 | 0.00 | 0.00 | 0.00 | 70 | 1012.0 |
| 20260507113917 | 77 | 140 | 4.3 | 0.0 | 0.00 | 0.00 | 0.00 | 67 | 1011.0 |
| 20260507112917 | 77 | 140 | 4.3 | 0.0 | 0.00 | 0.00 | 0.00 | 67 | 1011.0 |
| 20260507111916 | 77 | 140 | 4.3 | 0.0 | 0.00 | 0.00 | 0.00 | 63 | 1011.0 |
| 20260507110915 | 77 | 140 | 4.3 | 0.0 | 0.00 | 0.00 | 0.00 | 63 | 1011.0 |
| 20260507105915 | 77 | 140 | 5.2 | 0.0 | 0.00 | 0.00 | 0.00 | 63 | 1011.0 |
| 20260507104915 | 77 | 140 | 5.2 | 0.0 | 0.00 | 0.00 | 0.00 | 63 | 1011.0 |
| 20260507103914 | 77 | 140 | 4.3 | 0.0 | 0.00 | 0.00 | 0.00 | 63 | 1011.0 |
| 20260507102914 | 77 | 140 | 5.2 | 0.0 | 0.00 | 0.00 | 0.00 | 63 | 1011.0 |
| 20260507101913 | 77 | 82 | 4.3 | 13.0 | 0.00 | 0.00 | 0.00 | 63 | 1011.0 |
| 20260507100913 | 77 | 82 | 4.3 | 13.0 | 0.00 | 0.00 | 0.00 | 63 | 1011.0 |
| 20260507095912 | 77 | 82 | 4.3 | 13.0 | 0.00 | 0.00 | 0.00 | 63 | 1011.0 |
| 20260507094912 | 77 | 82 | 4.3 | 13.0 | 0.00 | 0.00 | 0.00 | 63 | 1011.0 |
| 20260507093911 | 77 | 82 | 5.2 | 13.9 | 0.00 | 0.00 | 0.00 | 63 | 1011.0 |
| 20260507092903 | 82 | 76 | 4.3 | 12.2 | 0.00 | 0.00 | 0.00 | 63 | 1011.0 |
| 20260507091853 | 81 | 76 | 4.3 | 12.2 | 0.00 | 0.00 | 0.00 | 63 | 1011.0 |
| 20260507085848 | 80 | 76 | 4.3 | 12.2 | 0.00 | 0.00 | 0.00 | 63 | 1011.0 |
| 20260507084848 | 80 | 76 | 4.3 | 12.2 | 0.00 | 0.00 | 0.00 | 63 | 1011.0 |
| 20260507081827 | 80 | 76 | 4.3 | 12.2 | 0.00 | 0.00 | 0.00 | 63 | 1011.0 |
| 20260507080824 | 79 | 76 | 4.3 | 12.2 | 0.00 | 0.00 | 0.00 | 63 | 1011.0 |
| 20260507075821 | 78 | 76 | 4.3 | 12.2 | 0.00 | 0.00 | 0.00 | 63 | 1011.0 |
| 20260507074815 | 77 | 76 | 4.3 | 12.2 | 0.00 | 0.00 | 0.00 | 63 | 1011.0 |
| 20260507073814 | 77 | 76 | 5.2 | 12.2 | 0.00 | 0.00 | 0.00 | 63 | 1011.0 |
| 20260507065751 | 82 | 130 | 7.0 | 0.0 | 0.00 | 0.00 | 0.00 | 63 | 1012.0 |
| 20260507064750 | 83 | 130 | 7.0 | 0.0 | 0.00 | 0.00 | 0.00 | 63 | 1012.0 |
| 20260507063748 | 83 | 130 | 7.0 | 0.0 | 0.00 | 0.00 | 0.00 | 63 | 1012.0 |
| 20260507062747 | 84 | 130 | 7.0 | 0.0 | 0.00 | 0.00 | 0.00 | 63 | 1012.0 |
| 20260507061730 | 85 | 130 | 7.0 | 0.0 | 0.00 | 0.00 | 0.00 | 63 | 1012.0 |
| 20260507060729 | 86 | 130 | 7.0 | 0.0 | 0.00 | 0.00 | 0.00 | 63 | 1012.0 |
| 20260507055720 | 85 | 130 | 7.8 | 0.0 | 0.00 | 0.00 | 0.00 | 63 | 1012.0 |
| 20260507054720 | 85 | 130 | 7.8 | 0.0 | 0.00 | 0.00 | 0.00 | 63 | 1012.0 |
| 20260507053719 | 85 | 117 | 6.1 | 13.0 | 0.00 | 0.00 | 0.00 | 63 | 1012.0 |
| 20260507052718 | 84 | 117 | 6.1 | 13.9 | 0.00 | 0.00 | 0.00 | 63 | 1012.0 |
| 20260507051718 | 87 | 130 | 9.6 | 0.0 | 0.00 | 0.00 | 0.00 | 62 | 1012.0 |
| 20260507050717 | 86 | 130 | 9.6 | 0.0 | 0.00 | 0.00 | 0.00 | 62 | 1012.0 |
| 20260507045717 | 86 | 130 | 9.6 | 0.0 | 0.00 | 0.00 | 0.00 | 62 | 1012.0 |
| 20260507044716 | 86 | 130 | 9.6 | 0.0 | 0.00 | 0.00 | 0.00 | 62 | 1012.0 |
| 20260507043715 | 88 | 96 | 11.3 | 20.0 | 0.00 | 0.00 | 0.00 | 57 | 1012.0 |
| 20260507042715 | 88 | 96 | 11.3 | 20.0 | 0.00 | 0.00 | 0.00 | 56 | 1012.0 |
| 20260507041714 | 88 | 96 | 11.3 | 20.0 | 0.00 | 0.00 | 0.00 | 55 | 1012.0 |
| 20260507040714 | 88 | 96 | 11.3 | 20.0 | 0.00 | 0.00 | 0.00 | 55 | 1012.0 |
| 20260507035714 | 88 | 96 | 11.3 | 20.0 | 0.00 | 0.00 | 0.00 | 55 | 1012.0 |
| 20260507034713 | 88 | 96 | 11.3 | 20.0 | 0.00 | 0.00 | 0.00 | 52 | 1012.0 |
| 20260507033712 | 88 | 96 | 11.3 | 20.0 | 0.00 | 0.00 | 0.00 | 52 | 1012.0 |
| 20260507031712 | 88 | 96 | 11.3 | 20.0 | 0.00 | 0.00 | 0.00 | 51 | 1012.0 |
| 20260507030711 | 88 | 96 | 11.3 | 20.0 | 0.00 | 0.00 | 0.00 | 50 | 1012.0 |
| 20260507025711 | 88 | 96 | 11.3 | 20.0 | 0.00 | 0.00 | 0.00 | 50 | 1012.0 |
| 20260507024710 | 88 | 96 | 11.3 | 20.0 | 0.00 | 0.00 | 0.00 | 47 | 1012.0 |
| 20260507023710 | 88 | 96 | 11.3 | 20.0 | 0.00 | 0.00 | 0.00 | 47 | 1012.0 |
| 20260507021659 | 88 | 96 | 11.3 | 20.0 | 0.00 | 0.00 | 0.00 | 46 | 1011.0 |
| 20260507015646 | 88 | 96 | 11.3 | 20.0 | 0.00 | 0.00 | 0.00 | 46 | 1011.0 |
| 20260507014646 | 88 | 96 | 11.3 | 20.0 | 0.00 | 0.00 | 0.00 | 46 | 1010.0 |
| 20260507013645 | 88 | 96 | 11.3 | 20.0 | 0.00 | 0.00 | 0.00 | 46 | 1010.0 |
| 20260507012645 | 88 | 96 | 11.3 | 20.0 | 0.00 | 0.00 | 0.00 | 46 | 1010.0 |
| 20260507011644 | 88 | 96 | 11.3 | 20.0 | 0.00 | 0.00 | 0.00 | 46 | 1010.0 |
| 20260507010635 | 88 | 96 | 11.3 | 20.0 | 0.00 | 0.00 | 0.00 | 46 | 1010.0 |
| 20260507005634 | 88 | 96 | 11.3 | 20.0 | 0.00 | 0.00 | 0.00 | 46 | 1010.0 |
| 20260507004634 | 87 | 96 | 11.3 | 20.0 | 0.00 | 0.00 | 0.00 | 46 | 1009.0 |
| 20260507003633 | 86 | 96 | 11.3 | 20.0 | 0.00 | 0.00 | 0.00 | 46 | 1009.0 |
| 20260507002633 | 86 | 96 | 11.3 | 20.0 | 0.00 | 0.00 | 0.00 | 46 | 1009.0 |
| 20260507001632 | 85 | 96 | 11.3 | 20.0 | 0.00 | 0.00 | 0.00 | 46 | 1009.0 |
| 20260507000632 | 85 | 96 | 11.3 | 20.0 | 0.00 | 0.00 | 0.00 | 46 | 1009.0 |
| 20260506235631 | 85 | 96 | 11.3 | 20.0 | 0.00 | 0.00 | 0.00 | 46 | 1009.0 |
| 20260506234631 | 97 | 90 | 13.0 | 0.0 | 0.00 | 0.00 | 0.00 | 37 | 1009.0 |
| 20260506233630 | 97 | 90 | 13.0 | 0.0 | 0.00 | 0.00 | 0.00 | 37 | 1009.0 |
| 20260506232630 | 96 | 90 | 13.0 | 0.0 | 0.00 | 0.00 | 0.00 | 37 | 1008.0 |
| 20260506231628 | 96 | 90 | 13.0 | 0.0 | 0.00 | 0.00 | 0.00 | 37 | 1008.0 |
| 20260506230623 | 96 | 90 | 13.0 | 0.0 | 0.00 | 0.00 | 0.00 | 37 | 1008.0 |
| 20260506225622 | 96 | 90 | 13.0 | 0.0 | 0.00 | 0.00 | 0.00 | 37 | 1008.0 |
| 20260506224622 | 96 | 90 | 13.0 | 0.0 | 0.00 | 0.00 | 0.00 | 37 | 1008.0 |
| 20260506223621 | 95 | 90 | 13.0 | 0.0 | 0.00 | 0.00 | 0.00 | 37 | 1008.0 |
| 20260506222620 | 95 | 90 | 13.0 | 0.0 | 0.00 | 0.00 | 0.00 | 37 | 1008.0 |
| 20260506221620 | 95 | 90 | 13.0 | 0.0 | 0.00 | 0.00 | 0.00 | 37 | 1008.0 |
| 20260506220619 | 95 | 90 | 13.0 | 0.0 | 0.00 | 0.00 | 0.00 | 37 | 1008.0 |
| 20260506215619 | 95 | 90 | 13.0 | 0.0 | 0.00 | 0.00 | 0.00 | 37 | 1008.0 |
| 20260506214618 | 95 | 90 | 13.0 | 0.0 | 0.00 | 0.00 | 0.00 | 37 | 1008.0 |
| 20260506212617 | 95 | 90 | 13.0 | 0.0 | 0.00 | 0.00 | 0.00 | 37 | 1008.0 |
| 20260506211617 | 95 | 90 | 13.0 | 0.0 | 0.00 | 0.00 | 0.00 | 37 | 1008.0 |
| 20260506210616 | 95 | 90 | 13.0 | 0.0 | 0.00 | 0.00 | 0.00 | 38 | 1008.0 |
| 20260506205616 | 95 | 90 | 13.0 | 0.0 | 0.00 | 0.00 | 0.00 | 38 | 1008.0 |
| 20260506204616 | 95 | 90 | 13.0 | 0.0 | 0.00 | 0.00 | 0.00 | 38 | 1008.0 |
| 20260506203615 | 95 | 90 | 13.0 | 0.0 | 0.00 | 0.00 | 0.00 | 38 | 1008.0 |
| 20260506202614 | 95 | 90 | 13.0 | 0.0 | 0.00 | 0.00 | 0.00 | 38 | 1008.0 |
| 20260506201614 | 95 | 90 | 13.0 | 0.0 | 0.00 | 0.00 | 0.00 | 38 | 1008.0 |
| 20260506200613 | 95 | 90 | 13.0 | 0.0 | 0.00 | 0.00 | 0.00 | 38 | 1008.0 |
| 20260506195613 | 95 | 90 | 13.0 | 0.0 | 0.00 | 0.00 | 0.00 | 38 | 1008.0 |
| 20260506194612 | 95 | 90 | 13.0 | 0.0 | 0.00 | 0.00 | 0.00 | 39 | 1008.0 |
| 20260506193612 | 95 | 90 | 13.0 | 0.0 | 0.00 | 0.00 | 0.00 | 40 | 1008.0 |
| 20260506192611 | 95 | 90 | 13.0 | 0.0 | 0.00 | 0.00 | 0.00 | 40 | 1009.0 |
| 20260506191611 | 95 | 90 | 13.0 | 0.0 | 0.00 | 0.00 | 0.00 | 40 | 1009.0 |
| 20260506190610 | 95 | 90 | 13.0 | 0.0 | 0.00 | 0.00 | 0.00 | 40 | 1009.0 |
| 20260506185610 | 95 | 90 | 13.9 | 0.0 | 0.00 | 0.00 | 0.00 | 40 | 1009.0 |
| 20260506184609 | 95 | 90 | 13.9 | 0.0 | 0.00 | 0.00 | 0.00 | 41 | 1010.0 |
| 20260506183608 | 95 | 90 | 13.9 | 0.0 | 0.00 | 0.00 | 0.00 | 42 | 1010.0 |
| 20260506182608 | 94 | 90 | 13.9 | 0.0 | 0.00 | 0.00 | 0.00 | 44 | 1011.0 |
| 20260506181608 | 94 | 90 | 13.9 | 0.0 | 0.00 | 0.00 | 0.00 | 44 | 1011.0 |
| 20260506180606 | 94 | 70 | 9.6 | 0.0 | 0.00 | 0.00 | 0.00 | 45 | 1011.0 |
| 20260506175605 | 93 | 70 | 9.6 | 0.0 | 0.00 | 0.00 | 0.00 | 46 | 1010.0 |